Location: Newark
(48.0000°N, 67.0000°E)
Time: 10:55:47
(UTC+00:00)

A-11 Canister half - Pass Details

Date: 21 February 2020
Orbit: 1516 x 1683 km, 47.2° (Epoch: 06 April)

Event Time Altitude Azimuth Distance (km) Brightness Sun altitude
Rises 18:26:53 0° 291° (WNW) 4,792 12.1 -49.1°
Reaches altitude 10° 18:30:24 10° 282° (WNW) 3,779 11.3 -49.4°
Enters shadow 18:33:08 19° 271° (W) 3,087 10.7 -49.6°
